Tracking 32963 objects as of 21-Jan-2026
HD Live streaming from Space Station
objects crossing your sky now

NOAA 16 DEB

Track NOAA 16 DEB now!
10-day predictions


NORAD ID: 41349
Int'l Code: 2000-055HS
Perigee: 706.7 km
Apogee: 748.7 km
Inclination: 99.0 °
Period: 99.2 minutes
Semi major axis: 7098 km
RCS: Unknown
Launch date: September 21, 2000
Source: United States (US)
Launch site: AIR FORCE WESTERN TEST RANGE (AFWTR)

Note: This is SATELLITE DEBRIS
Your satellite tracking list
Your tracking list is empty




NASA's NSSDC Master Catalog

Two Line Element Set (TLE):
1 41349U 00055HS  26020.80321526  .00027824  00000-0  68973-2 0  9996
2 41349  98.9779 222.0393 0029568 185.5692 174.5176 14.51561314522055
Source of the keplerian elements: AFSPC